Regional Weather Roundup
Issued by NWS

Home | Current Version | Previous Version | Text Only | Print | Product List | Glossary Off
Versions: 1 2 3 4 5 6 7 8 9 10 11 12 13 14 15 16 17 18 19 20 21 22 23 24 25 26 27 28 29 30 31 32 33 34 35 36 37 38 39 40 41 42 43 44 45 46 47 48 49 50

000
ASUS43 KFSD 020010
RWRSD

WEATHER ROUNDUP FOR SOUTH DAKOTA
NATIONAL WEATHER SERVICE SIOUX FALLS SD
700 PM CDT WED OCT 01 2014

NOTE: "FAIR" INDICATES FEW OR NO CLOUDS BELOW 12,000 FEET WITH NO
SIGNIFICANT WEATHER AND/OR OBSTRUCTIONS TO VISIBILITY.


SDZ001>005-009-010-012>017-020100-
NORTHWEST AND NORTH CENTRAL SOUTH DAKOTA

CITY           SKY/WX    TMP DP  RH WIND       PRES   REMARKS
BUFFALO          N/A     54  42  64 W8        29.83R
FAITH            N/A     54  45  71 NW15      29.88R
MOBRIDGE       CLOUDY    59  49  69 W13       29.81R
$$

SDZ012>016-024>037-041>051-057-063-072>074-020100-
SOUTHWEST AND SOUTH CENTRAL SOUTH DAKOTA

CITY           SKY/WX    TMP DP  RH WIND       PRES   REMARKS
RAPID CTY ARPT CLOUDY    53  42  66 N10       29.92R
PIERRE         PTCLDY    59  46  62 NW16      29.83R
CUSTER         LGT RAIN  44  37  76 NW3       29.95R
ELLSWORTH AFB  CLOUDY    54  42  63 N14       29.92R
PHILIP         CLOUDY    58  45  62 NW13      29.88R
PINE RIDGE     LGT RAIN  50  46  86 N6        29.93R
WINNER         FAIR      65  46  50 NW10      29.83R
$$

SDZ004>011-016>023-039-040-020100-
NORTHEAST SOUTH DAKOTA

CITY           SKY/WX    TMP DP  RH WIND       PRES   REMARKS
ABERDEEN       CLEAR     60  50  69 NW8       29.80R
WATERTOWN      CLEAR     63  50  62 W6        29.77R
SISSETON         N/A     64  50  60 NW8       29.75R
$$

SDZ017-020-022-023-036>040-048>070-020100-
SOUTHEAST SOUTH DAKOTA

CITY           SKY/WX    TMP DP  RH WIND       PRES   REMARKS
SIOUX FALLS    MOCLDY    68  53  58 NW5       29.77R
HURON          MOCLDY    68  49  50 N13       29.77R
CHAMBERLAIN    MOCLDY    66  48  51 N9        29.81R
MITCHELL       PTCLDY    68  51  54 NW6       29.77R
YANKTON        PTCLDY    66  54  63 NW7       29.76R
$$

ABBREVIATIONS USED IN REMARKS
   TC - TEMPERATURE IN CELSIUS
  WCI - WIND CHILL INDEX
   HX - HEAT INDEX
  VSB - VISIBILITY




USA.gov is the U.S. government's official web portal to all federal, state and local government web resources and services.